Date String (YYYY-MM-DD hh:mm:ss) UTC,Instrument flags,Ambient pressure (hPa),Sample flow (lpm),Bypass flow (lpm),Sample temperature (°C),Ambient temperature (°C),ASC tube jacket temperature (°C),LED temperature (°C),Box temperature (°C),Sample RH (%),Span deviation,Mass concentration (μg/m³),Mass concentration (μg/m³),Mass concentration (μg/m³)
DateTimeUTC,F1_M11,P_M11,Q1_M11,Q2_M11,T1_M11,T2_M11,T3_M11,T4_M11,T5_M11,U1_M11,ZSPAN_M11,X0_M11,X2_M11,X1_M11
2022-01-17 06:00:00,,0826.1,5.02,0.00,22.7,21.9,00.0,31.8,24.4,10.2,0000.0,0005.28,0002.62,0002.12
2022-01-17 06:01:00,,0826.1,4.99,0.00,22.7,21.9,00.0,31.8,24.4,10.2,0000.0,0005.29,0002.60,0002.10
2022-01-17 06:02:00,,0826.1,5.01,0.00,22.7,21.9,00.0,31.8,24.4,10.2,0000.0,0005.45,0002.63,0002.09
2022-01-17 06:03:00,,0826.1,5.00,0.00,22.7,21.9,00.0,31.8,24.4,10.2,0000.0,0005.56,0002.65,0002.08
2022-01-17 06:04:00,,0826.1,5.00,0.00,22.6,21.9,00.0,31.7,24.3,10.2,0000.0,0005.58,0002.69,0002.09
2022-01-17 06:05:00,,0826.2,5.00,0.00,22.6,21.9,00.0,31.7,24.3,10.3,0000.0,0005.13,0002.68,0002.11
2022-01-17 06:06:00,,0826.1,5.00,0.00,22.6,21.9,00.0,31.7,24.4,10.3,0000.0,0004.10,0002.64,0002.13
2022-01-17 06:07:00,,0826.2,4.99,0.00,22.6,21.9,00.0,31.7,24.4,10.3,0000.0,0003.88,0002.63,0002.17
2022-01-17 06:08:00,,0826.1,5.01,0.00,22.6,21.9,00.0,31.7,24.3,10.3,0000.0,0003.83,0002.63,0002.20
2022-01-17 06:09:00,,0826.1,4.99,0.00,22.6,21.9,00.0,31.7,24.3,10.3,0000.0,0004.08,0002.66,0002.24
2022-01-17 06:10:00,,0826.0,5.00,0.00,22.6,21.8,00.0,31.7,24.3,10.3,0000.0,0004.35,0002.72,0002.27
2022-01-17 06:11:00,,0826.0,5.01,0.00,22.6,21.8,00.0,31.7,24.3,10.3,0000.0,0004.36,0002.74,0002.28
2022-01-17 06:12:00,,0826.1,5.00,0.00,22.6,21.8,00.0,31.7,24.3,10.3,0000.0,0004.50,0002.79,0002.30
2022-01-17 06:13:00,,0826.1,4.99,0.00,22.6,21.8,00.0,31.7,24.3,10.3,0000.0,0004.46,0002.81,0002.33
2022-01-17 06:14:00,,0826.1,5.01,0.00,22.6,21.8,00.0,31.6,24.3,10.4,0000.0,0004.62,0002.88,0002.37
2022-01-17 06:15:00,,0826.1,4.99,0.00,22.6,21.8,00.0,31.6,24.3,10.4,0000.0,0004.72,0002.90,0002.40
2022-01-17 06:16:00,,0826.0,5.00,0.00,22.6,21.8,00.0,31.6,24.3,10.3,0000.0,0004.84,0002.93,0002.42
2022-01-17 06:17:00,,0826.0,5.01,0.00,22.6,21.8,00.0,31.6,24.3,10.3,0000.0,0004.90,0002.96,0002.43
2022-01-17 06:18:00,,0826.0,5.00,0.00,22.5,21.8,00.0,31.6,24.2,10.3,0000.0,0004.90,0003.00,0002.43
2022-01-17 06:19:00,,0826.0,4.99,0.00,22.5,21.8,00.0,31.6,24.2,10.4,0000.0,0004.81,0002.99,0002.44
2022-01-17 06:20:00,,0825.9,5.01,0.00,22.5,21.8,00.0,31.6,24.3,10.4,0000.0,0004.75,0002.98,0002.45
2022-01-17 06:21:00,,0825.9,5.01,0.00,22.5,21.8,00.0,31.6,24.3,10.4,0000.0,0004.74,0003.03,0002.44
2022-01-17 06:22:00,,0825.9,5.00,0.00,22.5,21.8,00.0,31.6,24.2,10.4,0000.0,0005.03,0003.07,0002.45
2022-01-17 06:23:00,,0825.9,5.00,0.00,22.5,21.8,00.0,31.6,24.2,10.4,0000.0,0005.07,0003.09,0002.45
2022-01-17 06:24:00,,0825.9,5.01,0.00,22.5,21.7,00.0,31.6,24.2,10.4,0000.0,0005.45,0003.13,0002.47
2022-01-17 06:25:00,,0825.9,4.99,0.00,22.5,21.7,00.0,31.6,24.2,10.4,0000.0,0005.50,0003.14,0002.47
2022-01-17 06:26:00,,0825.9,5.00,0.00,22.5,21.7,00.0,31.6,24.2,10.4,0000.0,0005.37,0003.12,0002.47
2022-01-17 06:27:00,,0825.8,5.01,0.00,22.5,21.7,00.0,31.5,24.2,10.4,0000.0,0005.82,0003.13,0002.47
2022-01-17 06:28:00,,0825.8,5.00,0.00,22.4,21.7,00.0,31.5,24.2,10.4,0000.0,0005.80,0003.13,0002.48
2022-01-17 06:29:00,,0825.7,4.99,0.00,22.4,21.7,00.0,31.5,24.1,10.4,0000.0,0005.86,0003.14,0002.49
2022-01-17 06:30:00,,0825.8,5.01,0.00,22.4,21.7,00.0,31.5,24.1,10.4,0000.0,0006.01,0003.16,0002.50
2022-01-17 06:31:00,,0825.8,5.00,0.00,22.4,21.7,00.0,31.5,24.1,10.4,0000.0,0006.03,0003.17,0002.51
2022-01-17 06:32:00,,0825.8,4.98,0.00,22.4,21.6,00.0,31.5,24.1,10.5,0000.0,0005.86,0003.16,0002.53
2022-01-17 06:33:00,,0825.8,5.01,0.00,22.4,21.6,00.0,31.5,24.1,10.5,0000.0,0005.74,0003.17,0002.56
2022-01-17 06:34:00,,0825.8,4.98,0.00,22.4,21.6,00.0,31.5,24.1,10.5,0000.0,0005.56,0003.16,0002.59
2022-01-17 06:35:00,,0825.7,5.00,0.00,22.4,21.6,00.0,31.5,24.1,10.5,0000.0,0005.28,0003.13,0002.59
2022-01-17 06:36:00,,0825.7,5.01,0.00,22.4,21.6,00.0,31.5,24.1,10.5,0000.0,0005.03,0003.10,0002.60
2022-01-17 06:37:00,,0825.7,5.00,0.00,22.3,21.6,00.0,31.4,24.1,10.5,0000.0,0005.03,0003.11,0002.61
2022-01-17 06:38:00,,0825.7,5.00,0.00,22.3,21.6,00.0,31.4,24.1,10.5,0000.0,0004.67,0003.12,0002.62
2022-01-17 06:39:00,,0825.7,4.99,0.00,22.3,21.6,00.0,31.4,24.1,10.5,0000.0,0004.53,0003.11,0002.64
2022-01-17 06:40:00,,0825.7,5.01,0.00,22.3,21.6,00.0,31.4,24.1,10.5,0000.0,0004.64,0003.12,0002.66
2022-01-17 06:41:00,,0825.7,5.01,0.00,22.3,21.5,00.0,31.4,24.1,10.5,0000.0,0004.61,0003.10,0002.67
2022-01-17 06:42:00,,0825.7,4.99,0.00,22.3,21.5,00.0,31.4,24.1,10.5,0000.0,0004.61,0003.09,0002.67
2022-01-17 06:43:00,,0825.6,4.99,0.00,22.3,21.5,00.0,31.4,24.1,10.5,0000.0,0004.75,0003.13,0002.66
2022-01-17 06:44:00,,0825.6,5.01,0.00,22.3,21.5,00.0,31.4,24.0,10.5,0000.0,0004.96,0003.12,0002.64
2022-01-17 06:45:00,,0825.6,4.99,0.00,22.3,21.5,00.0,31.4,24.0,10.5,0000.0,0005.06,0003.14,0002.64
2022-01-17 06:46:00,,0825.6,5.01,0.00,22.3,21.5,00.0,31.4,24.0,10.5,0000.0,0005.21,0003.16,0002.66
2022-01-17 06:47:00,,0825.6,5.01,0.00,22.3,21.5,00.0,31.4,24.0,10.6,0000.0,0005.34,0003.18,0002.66
2022-01-17 06:48:00,,0825.6,4.99,0.00,22.3,21.5,00.0,31.4,23.9,10.6,0000.0,0005.39,0003.19,0002.66
2022-01-17 06:49:00,,0825.6,5.00,0.00,22.2,21.5,00.0,31.3,24.0,10.6,0000.0,0005.57,0003.19,0002.66
2022-01-17 06:50:00,,0825.6,5.01,0.00,22.2,21.5,00.0,31.3,24.0,10.6,0000.0,0006.77,0003.21,0002.67
2022-01-17 06:51:00,,0825.5,5.00,0.00,22.2,21.5,00.0,31.3,23.9,10.6,0000.0,0007.41,0003.20,0002.65
2022-01-17 06:52:00,,0825.6,5.00,0.00,22.3,21.7,00.0,31.3,24.0,10.6,0000.0,0007.37,0003.20,0002.66
2022-01-17 06:53:00,,0825.6,5.00,0.00,22.4,22.4,00.0,31.4,24.3,10.5,0000.0,0007.43,0003.22,0002.67
2022-01-17 06:54:00,,0825.7,5.00,0.00,22.5,22.9,00.0,31.4,24.5,10.5,0000.0,0007.84,0003.19,0002.66
2022-01-17 06:55:00,,0825.6,5.00,0.00,22.6,22.9,00.0,31.4,24.6,10.4,0000.0,0007.92,0003.19,0002.68
2022-01-17 06:56:00,,0825.6,5.00,0.00,22.6,22.7,00.0,31.4,24.6,10.4,0000.0,0007.87,0003.17,0002.67
2022-01-17 06:57:00,,0825.6,5.00,0.00,22.6,22.6,00.0,31.5,24.5,10.4,0000.0,0007.98,0003.19,0002.67
2022-01-17 06:58:00,,0825.6,5.00,0.00,22.6,22.5,00.0,31.5,24.5,10.4,0000.0,0008.40,0003.21,0002.69
2022-01-17 06:59:00,,0825.6,5.00,0.00,22.6,22.4,00.0,31.5,24.5,10.4,0000.0,0008.58,0003.22,0002.70
